Location: Eisengraben
(48.5167°N, 15.4500°E)
Time: 18:27:02
(UTC+00:00)

Daily predictions for brighter satellites

Satellite Brightness Start Highest point End
(mag) Time Altitude Azimuth Time Altitude Azimuth Time Altitude Azimuth
Cosmos 1503 Rocket 4.3 17:13:46 10° NNW 17:18:58 73° WSW 17:24:05 10° SSE
Meteor 1-14 Rocket 4.2 17:19:08 10° S 17:24:38 70° E 17:30:10 10° NNE
Okean O Rocket 3.8 17:21:04 10° SSW 17:24:57 32° W 17:28:53 10° NNW
Cosmos 1500 3.1 17:22:53 10° S 17:26:36 72° E 17:30:20 10° NNE
Cosmos 2360 Rocket 2.2 17:21:04 10° SSW 17:26:44 84° ESE 17:32:27 10° NNE
SJ-11-01 4.3 17:23:02 10° SSE 17:27:41 66° ENE 17:32:23 10° N
USA 186 3.4 17:28:21 10° E 17:29:09 11° ENE 17:29:58 10° NE
Cosmos 1943 Rocket 4.3 17:28:25 10° N 17:29:50 11° NNE 17:31:14 10° NE
Okean 1-7 3.1 17:25:39 10° N 17:29:57 55° ENE 17:34:12 10° SSE
OBJECT-B 3.0 17:29:46 10° ENE 17:30:24 10° ENE 17:31:03 10° NE
Cosmos 2341 Rocket 4.1 17:24:32 10° SSE 17:30:36 53° E 17:36:40 10° NNE
PSLV R/B 4.1 17:27:49 10° NNE 17:31:48 49° E 17:35:44 10° S
Cosmos 1844 3.9 17:26:28 10° NNW 17:32:16 80° WSW 17:37:57 10° SSE
YAOGAN 1 2.5 17:28:49 10° SSE 17:33:08 78° ENE 17:37:29 10° N
Cosmos 2333 4.3 17:27:47 10° S 17:33:16 55° ESE 17:38:51 10° NE
Cosmos 2237 Rocket 3.7 17:31:59 10° SE 17:34:39 14° E 17:37:18 10° ENE
Cosmos 2278 Rocket 3.0 17:29:48 10° NNW 17:34:53 32° NE 17:39:56 10° ESE
SJ 16-02 2.3 17:34:15 10° N 17:38:07 28° ENE 17:41:56 10° ESE
SAR-Lupe-4 4.0 17:34:49 10° NNE 17:38:14 39° E 17:41:37 10° S
FALCON 9 DEB 3.1 17:35:34 10° WNW 17:38:43 62° NNE 17:41:32 13° ESE
Meteor 1-5 Rocket 4.2 17:35:32 10° S 17:40:52 64° E 17:46:26 10° NNE
Cosmos 2218 Rocket 4.4 17:35:29 10° SSE 17:41:27 43° E 17:47:25 10° NNE
COSMO-SKYMED 1 3.5 17:38:56 10° N 17:43:10 53° WNW 17:47:23 10° SSW
Okean 3 4.0 17:39:26 10° N 17:43:29 39° ENE 17:47:30 10° SE
SL-4 R/B 2.2 17:40:18 10° WNW 17:43:47 52° SSW 17:47:07 10° SE
Cosmos 1536 3.7 17:41:17 10° SSE 17:44:41 27° E 17:48:05 10° NNE
SeaSat 1 3.3 17:41:30 10° NE 17:45:44 28° ESE 17:49:56 10° SSE
FALCON 9 DEB 2.9 17:43:30 10° WNW 17:46:41 75° NNE 17:49:12 15° ESE
Cosmos 2242 Rocket 3.7 17:42:53 10° N 17:47:24 84° W 17:51:50 10° S
USA 234 4.5 17:45:47 10° E 17:50:14 20° ESE 17:54:49 10° SSE
Gbstr 26 Del rocket 3.5 17:46:51 10° WNW 17:51:18 65° NNE 17:55:46 15° E
Cosmos 2333 Rocket 2.2 17:48:31 10° SSW 17:54:08 63° ESE 17:59:48 10° NNE
USA 238 DEB 4.3 17:49:08 10° S 17:54:40 30° ESE 18:00:24 10° NE
USA 238 4.4 17:49:16 10° S 17:54:47 30° ESE 18:00:30 10° NE
Resurs 01 Rocket 3.5 17:54:08 12° ENE 17:55:02 13° ENE 17:57:02 10° NNE
Abrixas rocket 2.3 17:52:45 10° W 17:55:07 41° SSW 17:56:40 18° SE
Meteor 2-4 Rocket 4.3 17:52:31 10° NNW 17:58:21 66° W 18:04:13 10° S
SAR-Lupe-1 3.9 17:55:05 10° NNE 17:58:41 72° ESE 18:02:16 10° S
Helios 1A Rocket 2.8 17:55:47 10° SSE 17:59:49 86° ENE 18:03:53 10° NNW
Cosmos 2322 Rocket 3.7 17:55:24 10° WSW 18:00:35 37° NW 18:05:48 10° NNE
Lacrosse 4 Rocket 1.5 17:57:05 10° SSW 18:01:28 74° ESE 18:05:58 10° NE
GP-B 3.1 17:57:33 10° S 18:02:00 89° E 18:06:28 10° N
ARGOS 3.4 17:58:36 10° S 18:04:01 77° WSW 18:09:30 10° NNW
ERBS 4.4 18:04:50 10° NW 18:07:15 19° N 18:09:27 11° NE
Cosmos 192 4.3 18:02:58 10° SSW 18:07:52 87° ESE 18:12:49 10° NNE
Cosmos 1869 Rocket 3.5 18:04:20 10° S 18:08:40 72° E 18:13:06 10° NNE
CZ-4 R/B 3.0 18:05:59 10° SSW 18:09:35 36° W 18:13:15 10° NNW
CZ-4B R/B 4.0 18:07:12 10° NNW 18:09:41 22° WNW 18:12:09 10° WSW
Cosmos 2219 Rocket 2.1 18:05:03 10° SSW 18:10:37 74° ESE 18:16:15 10° NNE
ERS-2 2.4 18:10:42 10° N 18:14:21 72° WNW 18:17:59 10° SSW
CZ-2C R/B 2.6 18:09:17 10° NNE 18:14:46 78° ESE 18:20:04 10° S
FALCON 9 DEB 3.0 18:12:12 10° WNW 18:15:21 68° SSW 18:16:47 29° SE
Cosmos 1689 Rocket 2.9 18:13:08 10° N 18:15:57 50° WNW 18:18:46 10° SSW
Cosmos 1238 Rocket 2.9 18:13:01 10° SSE 18:16:53 45° E 18:20:11 10° NNE
Cosmos 1378 3.0 18:14:58 10° N 18:18:43 71° E 18:22:24 10° SSE
Cosmos 1980 4.3 18:13:56 10° SSE 18:18:50 31° ESE 18:23:44 10° NE
SL-08 RB Rocket 3.9 18:14:27 10° S 18:18:58 73° WSW 18:23:35 10° NNW
USA 305 3.1 18:16:23 10° WNW 18:20:39 62° NNE 18:22:40 29° E
NOSS 3-2 (A) 3.5 18:17:52 10° SSW 18:23:15 50° ESE 18:29:25 10° NE
CREW DRAGON DEMO-1 DEB 2.7 18:20:58 10° SW 18:23:44 53° SSE 18:23:59 50° SE
FALCON 9 DEB 3.0 18:21:38 10° WNW 18:24:49 68° SSW 18:25:51 38° SE
COSMOS 2428 2.6 18:19:41 10° SSW 18:25:22 80° ESE 18:31:05 10° NNE
Cosmos 1733 Rocket 3.5 18:22:02 10° SSE 18:26:01 37° E 18:30:03 10° NNE
SL-8 Rocket 4.3 18:27:57 10° SSW 18:34:09 71° WNW 18:40:20 10° N
Meteor 2-20 4.4 18:28:15 10° N 18:34:23 73° ENE 18:40:31 10° SSE
USA 307 2.9 18:30:08 10° WNW 18:34:25 68° NNE 18:35:52 39° E
Cosmos 2369 Rocket 4.0 18:31:35 10° N 18:34:44 15° NE 18:36:12 14° NE
CENTAUR R/B 2.8 18:29:30 10° S 18:34:58 42° ESE 18:41:24 10° NE
USA 306 2.9 18:31:24 10° WNW 18:35:42 71° NNE 18:37:06 40° E
NOSS 0 Rocket 4.0 18:30:49 10° S 18:36:45 53° ESE 18:42:42 10° NE
Cosmos 1066 Rocket 4.4 18:31:21 10° NNW 18:37:07 79° W 18:42:58 10° S
ATLAS CENTAUR R/B 3.6 18:34:35 10° W 18:37:16 19° NNW 18:40:00 10° NNE
Cosmos 1898 Rocket 3.8 18:32:16 10° NNW 18:37:20 47° ENE 18:39:11 33° ESE
Cosmos 1743 2.7 18:36:49 10° S 18:40:36 56° E 18:44:26 10° NNE
USA 308 2.8 18:40:57 10° WNW 18:45:15 76° NNE 18:46:15 50° E
Meteor 1-23 Rocket 4.2 18:41:55 10° NNW 18:47:33 82° W 18:53:13 10° S
BREEZE-M DEB (TANK) 3.7 18:48:32 10° SW 18:50:06 36° SSW 18:50:06 36° SSW
ASTEX 1 3.3 18:46:22 10° N 18:51:17 89° E 18:56:11 10° S
Cosmos 2366 rocket 4.4 18:46:08 10° SSW 18:52:25 65° WNW 18:58:46 10° N
Cosmos 1674 Rocket 3.4 18:50:38 10° N 18:54:55 60° ENE 18:55:15 58° ESE
SJ-6B 3.1 18:52:44 23° S 18:55:11 70° WSW 18:59:12 10° NNW
Cosmos 990 Rocket 3.8 18:52:40 10° NNW 18:57:53 79° ENE 18:59:41 42° SSE
Ariane Rocket 2.9 18:55:34 24° SSE 18:58:41 89° WSW 19:03:50 10° NNW
Cosmos 2221 Rocket 3.9 18:54:30 10° NNW 18:58:55 66° W 19:02:10 18° S
USA 186 3.2 18:59:36 28° W 18:59:39 28° W 19:01:59 10° NNW
ARIANE 5 R/B 4.4 19:01:45 19° NE 19:01:45 19° NE 19:03:44 10° NNE
Cosmos 2297 4.3 18:56:36 10° NNW 19:02:00 39° NE 19:02:40 38° ENE
OBJECT-B 1.2 19:02:10 59° WSW 19:02:11 59° W 19:05:23 10° NNW
Cosmos 1763 Rocket 3.6 18:57:28 10° S 19:02:37 53° ESE 19:07:47 10° NNE
NOSS 3-2 (C) 3.3 18:59:27 10° SSW 19:04:57 57° ESE 19:08:11 28° NE
Okean 2 4.4 19:02:12 10° N 19:04:48 32° NNE 19:04:48 32° NNE
Cosmos 1378 Rocket 3.4 19:04:58 10° N 19:09:21 72° ENE 19:09:21 72° ENE
Cosmos 2360 Rocket 4.5 19:07:04 10° W 19:11:27 23° NW 19:15:53 10° N
Cosmos 468 Rocket 3.9 19:09:02 10° SSW 19:14:18 70° ESE 19:19:34 10° NNE
Cosmos 1943 Rocket 3.0 19:10:14 10° NNW 19:15:25 35° NE 19:15:25 35° NE
Cosmos 1821 Rocket 3.9 19:10:20 10° S 19:16:34 89° E 19:22:44 10° N
SJ 16-02 2.8 19:12:42 10° NW 19:16:44 36° WSW 19:19:18 19° SSW
Cosmos 2237 Rocket 2.0 19:12:04 10° SSW 19:17:46 80° ESE 19:23:29 10° NNE
Cosmos 1544 4.1 19:14:58 10° SSW 19:18:29 46° WNW 19:22:03 10° N
Cosmos 858 Rocket 4.3 19:13:21 10° NNW 19:18:34 71° ENE 19:18:47 70° E
Cosmos 2278 Rocket 2.8 19:13:44 10° NW 19:19:14 52° WSW 19:22:11 26° S
USA 81 4.1 19:17:02 10° S 19:22:17 76° W 19:27:35 10° N
Meteor 1-21 4.1 19:16:49 10° N 19:22:33 70° ENE 19:23:05 65° ESE
SeaSat 1 3.2 19:18:39 10° NNE 19:23:28 51° NW 19:28:14 10° SW
SPOT 3 Rocket 3.4 19:24:24 74° SE 19:24:48 81° ENE 19:30:03 10° NNW
Cosmos 2239 Rocket 4.4 19:19:57 10° S 19:26:16 89° E 19:32:33 10° N
Cosmos 1934 Rocket 3.8 19:30:06 67° ESE 19:30:22 68° E 19:36:30 10° NNE
Resurs 01 Rocket 2.0 19:31:41 59° NNW 19:31:41 59° NNW 19:35:18 10° NNW
SME Rocket 4.5 19:24:03 10° NNE 19:31:32 60° WNW 19:36:29 10° SW
SPOT 1/Viking Rocket 4.2 19:33:55 43° NNE 19:33:55 43° NNE 19:37:48 10° N
USA 234 3.1 19:33:09 59° E 19:34:05 66° SE 19:40:35 10° SW
Gbstr 26 Del rocket 3.8 19:33:29 10° WNW 19:38:19 60° SSW 19:38:19 60° SSW
Cosmos 2333 Rocket 4.1 19:33:58 10° WSW 19:38:51 28° NW 19:43:47 10° NNE
Cosmos 1937 Rocket 3.5 19:34:47 10° NNW 19:39:49 76° W 19:39:49 76° W
Cosmos 2123 Rocket 3.9 19:33:50 10° N 19:40:07 90° ENE 19:41:02 67° S
Lacrosse 4 Rocket 4.0 19:37:16 10° W 19:40:40 21° NW 19:44:07 10° N
USA 238 DEB 3.8 19:38:28 10° SW 19:45:03 70° NW 19:52:01 10° NE
USA 238 3.8 19:38:35 10° SW 19:45:10 71° NW 19:52:07 10° NE
Cosmos 2219 Rocket 4.3 19:50:38 10° W 19:55:10 25° NW 19:59:45 10° N
Terra 4.0 20:00:54 17° NNE 20:00:54 17° NNE 20:02:14 10° N
NOSS 3-2 (A) 4.4 20:08:37 10° WSW 20:14:12 44° NW 20:20:42 10° NE
Cosmos 1605 Rocket 4.5 20:15:57 54° N 20:15:57 54° N 20:20:46 10° N
Cosmos 2369 Rocket 3.3 20:14:31 10° NNW 20:18:00 36° N 20:18:00 36° N
CENTAUR R/B 3.2 20:19:28 10° WSW 20:25:29 53° NW 20:32:43 10° NE
USA 281 4.2 20:54:08 38° N 20:54:08 38° N 20:58:22 10° NNW
Cosmos 1943 Rocket 3.9 20:53:57 10° NW 20:56:58 30° NW 20:56:58 30° NW
Cosmos 2237 Rocket 4.3 20:57:58 10° W 21:02:30 24° NW 21:07:03 10° N
CENTAUR R/B 4.5 22:12:14 10° WNW 22:17:56 27° N 22:24:26 10° NE
